Location: B�rgermoos
(47.6500°N, 9.0667°E)
Time: 05:42:14
(UTC+00:00)

Okean-O - Pass Details

Date: 18 September 2020
Orbit: 638 x 641 km, 98.2° (Epoch: 29 October)

Event Time Altitude Azimuth Distance (km) Brightness Sun altitude
Rises 18:05:57 0° 177° (S) 2,933 5.9 -7.0°
Reaches altitude 10° 18:08:11 10° 182° (S) 2,029 5.1 -7.4°
Maximum altitude 18:12:30 52° 259° (W) 798 3.6 -8.1°
Drops below altitude 10° 18:16:52 10° 337° (NNW) 2,045 5.7 -8.8°
Sets 18:19:08 0° 342° (NNW) 2,960 6.5 -9.2°
